Location: Geyikbay?r?
(36.8756°N, 30.4583°E)
Time: 00:04:41
(UTC+00:00)

SPOT 3 Rocket - Pass Details

Date: 05 August 2024
Orbit: 775 x 792 km, 98.6° (Epoch: 18 September)

Event Time Altitude Azimuth Distance (km) Brightness Sun altitude
Exits shadow 19:41:17 79° 218° (SW) 812 3.4 -26.8°
Maximum altitude 19:41:31 81° 257° (WSW) 806 3.5 -26.8°
Drops below altitude 10° 19:46:45 10° 345° (NNW) 2,364 6.9 -27.4°
Sets 19:49:05 0° 346° (NNW) 3,295 7.8 -27.7°
